METLOCID,DATE_TIME,AVG_WSPD,STDDEV_WSPD,MIN_WSPD,MAX_WSPD,N_WSPD
COHM,11/1/93,3.146376812,1.108069295,1.1,5.5,69
COHM,12/1/93,3.672838617,1.848564988,0.3,11.1,1388
COHM,1/1/94,2.954398827,1.250322604,0.1,6.7,682
COHM,2/1/94,3.287906977,1.422102823,0.7,7.9,215
COHM,3/1/94,3.764112903,1.64716737,0.8,8.9,248
COHM,4/1/94,3.882083333,1.685916259,0.6,7.3,240
COHM,5/1/94,3.92804878,2.280079182,1.2,18.6,246
COHM,6/1/94,4.514583333,2.497227717,1.3,14.9,240
COHM,7/1/94,4.365725806,2.446081448,0.8,14.8,248
COHM,8/1/94,4.170564516,1.419093514,1.2,8.9,248
COHM,9/1/94,3.589583333,1.605122499,0.8,12.4,240
COHM,10/1/94,3.369758065,1.5593043,0.7,8.9,248
COHM,11/1/94,3.686206897,1.86290547,1,9.8,116
COHM,12/1/94,3.173609394,1.608777547,0,10.3,1618
COHM,1/1/95,3.490444145,1.571405371,0,8.7,2229
COHM,2/1/95,3.992361111,2.727718392,0.06,17.46,2016
COHM,3/1/95,4.011021963,2.506238984,0,14.27,2231
COHM,4/1/95,3.736143519,1.920281333,0.14,11.66,2160
COHM,5/1/95,3.594018817,2.373912457,0.03,16.41,2232
COHM,6/1/95,4.399074074,2.676866826,0.16,17.55,2160
COHM,7/1/95,4.032674731,2.248644547,0.15,12.45,2232
COHM,8/1/95,4.757728495,2.998645427,0.19,18.37,2232
COHM,9/1/95,3.603976852,2.349489349,0.01,14.77,2160
COHM,10/1/95,3.984655018,2.666289963,0.05,14.31,2232
COHM,11/1/95,3.982822689,2.314029091,0.23,13.09,2239
COHM,12/1/95,3.290225893,1.535314783,0.13,9.27,2966
COHM,1/1/96,3.745998655,1.932371966,0,10.8,2974
COHM,2/1/96,3.484446839,1.613720874,0,7.7,2784
COHM,3/1/96,3.963575269,3.099259416,0,21.8,2976
COHM,4/1/96,4.1246875,2.319844673,0.1,18.2,2880
COHM,5/1/96,3.766465054,2.109080266,0,12.4,2976
COHM,6/1/96,4.657986111,2.690938851,0.1,16.1,2880
COHM,7/1/96,4.288676075,2.076970028,0,14.8,2976
COHM,8/1/96,4.340120968,2.539847779,0,16.4,2976
COHM,9/1/96,4.1959375,1.804983498,0.1,14.3,2880
COHM,10/1/96,3.340389785,1.959243993,0,14.3,2976
COHM,11/1/96,3.556825287,1.84941846,0,11,2879
COHM,12/1/96,3.445445378,1.546159938,0.1,10.2,2975
COHM,1/1/97,3.134267667,1.514024168,0,8.7,2533
COHM,5/1/97,3.894659546,1.930357895,0.5,12.7,749
COHM,6/1/97,4.567713004,2.804233266,0.1,15.4,1784
COHM,11/1/97,2.769274809,1.069689582,0.2,5.1,524
COHM,12/1/97,3.694623656,1.471329814,0,8.5,2976
COHM,1/1/98,3.803518268,1.767752443,0,8.3,2956
COHM,2/1/98,3.630245536,1.950924798,0,10.9,2688
COHM,3/1/98,3.909475806,2.14977136,0,11.8,2976
COHM,4/1/98,4.502152778,1.894076492,0.1,13.3,2880
COHM,5/1/98,4.497009409,2.600581925,0.3,15.5,2976
COHM,6/1/98,3.979236111,2.518379698,0,15.1,2880
COHM,7/1/98,3.940255376,2.439071142,0,18.2,2976
COHM,8/1/98,3.963608871,3.227874855,0,19.4,2976
COHM,9/1/98,2.765729167,1.606932648,0,10,2880
COHM,10/1/98,3.439341917,2.070245151,0.1,14,2796
COHM,11/1/98,3.45921466,1.620629323,0.1,9.7,1910
COHM,12/1/98,3.906149194,2.226048802,0.2,14.2,2976
COHM,1/1/99,3.326982527,1.584859382,0,9,2976
COHM,2/1/99,3.203869048,1.464290203,0,9.1,2688
COHM,3/1/99,3.585853495,1.721290744,0,8.6,2976
COHM,4/1/99,4.100416667,2.010182442,0.1,11.8,2880
COHM,5/1/99,4.483098118,1.809407706,0.4,13.5,2976
COHM,6/1/99,3.708541667,2.587733231,0,18.4,2880
COHM,7/1/99,4.553326613,2.766660279,0.1,15.7,2976
COHM,8/1/99,4.284375,1.994166572,0,12.9,2976
COHM,9/1/99,3.993194444,2.452799055,0.1,13.3,2880
COHM,10/1/99,4.066935484,3.199992986,0.1,22.9,2976
COHM,11/1/99,3.411597222,1.886841572,0.1,11.8,2880
COHM,12/1/99,3.685752688,1.704352896,0.2,11.6,2976
COHM,1/1/00,3.49952957,1.481833901,0.2,10.2,2976
COHM,2/1/00,3.70625,1.911821053,0.1,14.5,2784
COHM,3/1/00,3.901344086,2.17829589,0.1,14.7,2976
COHM,4/1/00,4.334756944,2.047351141,0.4,12.2,2880
COHM,5/1/00,3.676579301,2.044090279,0,11.5,2976
COHM,6/1/00,4.1496875,2.131710313,0.2,15.1,2880
COHM,7/1/00,4.777284946,2.66798287,0.2,16,2976
COHM,8/1/00,5.016330645,2.802877653,0.1,16,2976
COHM,9/1/00,4.799270833,3.394937718,0.1,20.7,2880
COHM,10/1/00,3.065255376,1.751740302,0.1,8.9,2976
COHM,11/1/00,4.230590278,2.517324136,0.2,13.2,2880
COHM,12/1/00,3.47906586,1.536194775,0.3,8.6,2976
COHM,1/1/01,3.207560484,1.522441636,0.1,9,2976
COHM,2/1/01,3.29828869,1.615890588,0.1,10.3,2688
COHM,3/1/01,3.717708333,2.141471792,0.2,18.3,2976
COHM,4/1/01,3.610763889,2.104091048,0.1,12.8,2880
COHM,5/1/01,4.717641129,2.842820462,0.2,17.2,2976
COHM,6/1/01,4.466527778,3.384780582,0.2,19.7,2880
COHM,7/1/01,4.790625,2.847736441,0.4,19.7,2976
COHM,8/1/01,3.543178763,1.82739761,0,8.2,2976
COHM,9/1/01,3.913055556,1.989350696,0.1,13.4,2880
COHM,10/1/01,4.097446237,2.210182744,0.3,12.7,2976
COHM,11/1/01,3.866909722,1.912438626,0.2,11.8,2880
COHM,12/1/01,3.890994624,2.388483479,0.3,15.7,2976
COHM,1/1/02,3.14469086,2.263589483,0,16.7,2976
COHM,2/1/02,2.976041667,1.586085416,0,12,2688
COHM,3/1/02,3.65766129,2.092883927,0.1,12.4,2976
COHM,4/1/02,3.9896875,2.177377747,0.3,15.3,2880
COHM,5/1/02,3.957594086,2.461850665,0,13.5,2976
COHM,6/1/02,3.505625,1.862523105,0.1,12.8,2880
COHM,7/1/02,4.101646505,2.111935027,0,16.7,2976
COHM,8/1/02,3.95530914,2.424981754,0.1,17.7,2976
COHM,9/1/02,3.422534722,1.939536501,0.2,11.8,2880
COHM,10/1/02,3.238474462,1.852542625,0.1,12,2976
COHM,11/1/02,3.594861111,2.259465363,0,15.4,2880
COHM,12/1/02,3.190625,1.611317999,0,10.8,2976
COHM,1/1/03,3.238172043,1.713711747,0,9.7,2976
COHM,2/1/03,2.939136905,1.487772117,0.1,8.6,2688
COHM,3/1/03,4.011693548,2.377026818,0,15.1,2976
COHM,4/1/03,3.699270833,2.192177864,0,17.2,2880
COHM,5/1/03,5.085450269,3.235342643,0.1,19.1,2976
COHM,6/1/03,4.160555556,2.182881958,0.1,12.5,2880
COHM,7/1/03,5.241801075,2.907767629,0.4,17.2,2976
COHM,8/1/03,3.70171371,1.837720662,0,11.2,2976
COHM,9/1/03,5.55625,4.332329073,0.1,21.9,2880
COHM,10/1/03,3.914952957,2.562506952,0.2,16.8,2976
COHM,11/1/03,3.954895833,1.835735254,0.1,10.5,2880
COHM,12/1/03,3.415826613,1.855655409,0.2,15.7,2976
COHM,1/1/04,3.124966398,1.296396427,0.2,8.8,2976
COHM,2/1/04,3.088900862,1.496423697,0.1,7.7,2784
COHM,3/1/04,3.220194892,1.861218205,0,8.3,2976
COHM,4/1/04,3.989097222,1.932470362,0.1,11.2,2880
COHM,5/1/04,5.093716398,2.574207718,0.2,16.8,2976
COHM,6/1/04,6.01625,5.269617065,0.2,29.5,2880
COHM,7/1/04,3.668380376,1.77059593,0.1,13.1,2976
COHM,8/1/04,4.705846774,3.869701236,0.2,29.5,2976
COHM,9/1/04,3.321493056,1.857543746,0.2,11.7,2880
COHM,10/1/04,3.765490591,2.488982505,0,15.2,2976
COHM,11/1/04,3.742430556,2.157186668,0.2,13.6,2880
COHM,12/1/04,3.201948925,1.490878563,0,10.6,2976
COHM,1/1/05,3.183837366,1.656067284,0,12.1,2976
COHM,2/1/05,3.417931548,1.676477036,0,9.9,2688
COHM,3/1/05,3.739314516,1.894576089,0.1,8.9,2976
COHM,4/1/05,3.435555556,1.755471683,0.1,10,2880
COHM,5/1/05,4.347681452,2.410621037,0.2,15.2,2976
COHM,6/1/05,4.368958333,3.423424451,0.2,18.8,2880
COHM,7/1/05,4.491229839,3.247525294,0.1,24.6,2976
COHM,8/1/05,3.852755376,2.515265487,0.1,19.2,2976
COHM,9/1/05,4.225763889,1.781352242,0.4,12.8,2880
COHM,10/1/05,3.728662634,2.551295935,0.1,15.5,2976
COHM,11/1/05,3.312430556,1.761588434,0,10.5,2880
COHM,12/1/05,3.160450269,1.485408582,0.1,11.1,2976
COHM,1/1/06,3.123966387,1.453826572,0.2,9.4,2975
COHM,2/1/06,3.158928571,1.657059164,0,10.4,2688
COHM,3/1/06,3.38844086,2.301378642,0,20.4,2976
COHM,4/1/06,3.822395833,2.052679394,0.1,14.8,2880
COHM,5/1/06,3.846572581,2.072606854,0.1,20.8,2976
COHM,6/1/06,5.051944444,2.766415787,0.2,15.9,2880
COHM,7/1/06,3.929301075,1.952178266,0.2,18.1,2976
COHM,8/1/06,4.136122312,2.783476265,0,15.9,2976
COHM,9/1/06,5.136354167,3.590276887,0,18.5,2880
COHM,10/1/06,3.510551075,1.864901709,0.1,11.8,2976
COHM,11/1/06,3.316145833,1.685165979,0,9.9,2880
COHM,12/1/06,3.639146505,1.856979515,0.1,13.4,2976
COHM,1/1/07,3.54593414,1.865601109,0.1,12.4,2976
COHM,2/1/07,3.456622024,1.680420106,0.1,11.5,2688
COHM,3/1/07,3.864482527,1.91460866,0.2,12.1,2976
COHM,4/1/07,4.985208333,3.195975341,0.2,18.3,2880
COHM,5/1/07,4.705544355,2.956245548,0,27.3,2976
COHM,6/1/07,4.945868056,2.825067098,0,20.2,2880
COHM,7/1/07,4.962634409,2.765266255,0.1,18.1,2976
COHM,8/1/07,4.911391129,2.906903047,0.4,21.2,2976
COHM,9/1/07,4.684166667,3.108712113,0.2,18.9,2880
COHM,10/1/07,3.213978495,2.137443576,0,13.6,2976
COHM,11/1/07,3.3678125,2.137701906,0.1,13.4,2880
COHM,12/1/07,3.815423387,1.648208813,0.1,9.8,2976
COHM,1/1/08,3.792708333,1.636104388,0,11.4,2976
COHM,2/1/08,3.528412356,1.735754356,0,10.2,2784
COHM,3/1/08,3.517372312,2.227215306,0,15.5,2976
COHM,4/1/08,3.936215278,2.200190458,0,14,2880
COHM,5/1/08,4.54015457,2.088448544,0.3,12.4,2976
COHM,6/1/08,5.052604167,4.030432189,0,25.9,2880
COHM,7/1/08,4.480544355,2.229831626,0.1,15.4,2976
COHM,8/1/08,3.998555108,1.87206656,0.2,14.2,2976
COHM,9/1/08,4.882951389,2.766452437,0.1,15.2,2880
COHM,10/1/08,3.121001344,1.95984371,0,11.7,2976
COHM,11/1/08,3.324895833,1.849542528,0.1,11.3,2880
COHM,12/1/08,3.624361559,1.837470291,0.2,13,2976
COHM,1/1/09,2.983635753,1.349939689,0,10.7,2976
COHM,2/1/09,2.944308036,1.488026009,0,8.1,2688
COHM,3/1/09,3.100504032,1.544378719,0,7.4,2976
COHM,4/1/09,4.868402778,3.157348874,0.3,18.2,2880
COHM,5/1/09,4.057325269,2.069901172,0.1,13.4,2976
COHM,6/1/09,4.335763889,1.935819497,0.1,12.1,2880
COHM,7/1/09,3.657762097,1.880119851,0,12.3,2976
COHM,8/1/09,3.97983871,2.369527154,0,14.8,2976
COHM,9/1/09,4.834618056,3.009251601,0.1,19.3,2880
COHM,10/1/09,3.380241935,1.997389744,0.1,14.6,2976
COHM,11/1/09,3.809201389,2.215326493,0.2,13,2880
COHM,12/1/09,3.508198925,1.486526598,0.3,9.5,2976
COHM,1/1/10,3.294455645,1.565587764,0.1,8.5,2976
COHM,2/1/10,3.471837798,2.025628328,0.2,11,2688
COHM,3/1/10,3.616196237,1.976573671,0,10.3,2976
COHM,4/1/10,4.315520833,2.003425013,0.3,12.9,2880
COHM,5/1/10,3.877016129,1.927742434,0.2,15.5,2976
COHM,6/1/10,4.331805556,1.920275051,0.2,12.7,2880
COHM,7/1/10,4.93797043,2.880210621,0.5,18.7,2976
COHM,8/1/10,4.303696237,2.802946789,0.2,19.8,2976
COHM,9/1/10,4.040659722,2.172035534,0.2,14.7,2880
COHM,10/1/10,3.470060484,2.437105487,0.1,24.7,2976
COHM,11/1/10,4.347361111,2.569465607,0.4,26.9,2880
COHM,12/1/10,3.612063172,2.216936863,0,16.5,2976
COHM,1/1/11,2.728763441,1.254555109,0,6.3,2976
COHM,2/1/11,3.553348214,2.160246601,0.1,12.2,2688
COHM,3/1/11,3.988138441,1.92819603,0.3,12,2976
COHM,4/1/11,3.954791667,2.974681508,0,18.4,2880
COHM,5/1/11,3.796505376,2.233946175,0.1,14.6,2976
COHM,6/1/11,4.103055556,2.895162097,0,16.1,2880
COHM,7/1/11,5.039650538,3.55117314,0.3,18.1,2976
COHM,8/1/11,4.076075269,2.440185732,0,20,2976
COHM,9/1/11,4.032465278,3.590130353,0,22.2,2880
COHM,10/1/11,3.538541667,2.230335489,0.1,15.5,2976
COHM,11/1/11,3.382638889,1.670988578,0.2,10.7,2880
COHM,12/1/11,3.860819892,2.411085853,0.3,18.6,2976
COHM,1/1/12,3.424535316,1.437359951,0.1,8,2959
COHM,2/1/12,3.846623563,2.045217225,0,11.4,2784
COHM,3/1/12,4.070732527,2.028211184,0,11.8,2976
COHM,4/1/12,4.572986111,2.111252566,0.1,13,2880
COHM,5/1/12,6.001545699,3.926215827,0,18.1,2976
COHM,6/1/12,4.5925,2.776646644,0.3,21,2880
COHM,7/1/12,3.770194892,1.963526778,0.1,15.5,2976
COHM,8/1/12,5.021740591,4.128577324,0.1,27.3,2976
COHM,9/1/12,4.584305556,2.644845998,0.2,15.8,2880
COHM,10/1/12,3.560853495,2.399230229,0,15.7,2976
COHM,11/1/12,3.464652778,1.756534137,0.2,10.3,2880
COHM,12/1/12,3.203158602,1.529990422,0.1,8.9,2976
COHM,1/1/13,3.610517473,1.693902143,0.1,9.5,2976
COHM,2/1/13,3.33125,1.71193353,0,9.4,2688
COHM,3/1/13,3.886424731,2.165290095,0,13.2,2976
COHM,4/1/13,4.689583333,2.357918638,0.1,13.9,2880
COHM,5/1/13,4.191397849,2.578601001,0.1,13.9,2976
COHM,6/1/13,3.936979167,2.039627536,0.1,11.7,2880
COHM,7/1/13,4.166733871,2.216441743,0.1,14.7,2976
COHM,8/1/13,4.204737903,2.641036415,0.2,24.1,2976
COHM,9/1/13,4.284305556,2.890347004,0.2,20,2880
COHM,10/1/13,3.136928763,1.877177528,0,12.4,2976
COHM,11/1/13,3.554201389,2.017702927,0.1,11.5,2880
COHM,12/1/13,3.39516129,1.427439421,0.2,8.8,2976
COHM,1/1/14,3.562302521,2.297039579,0.08,14.2,2975
COHM,2/1/14,3.79018236,1.849683518,0.06,11.21,2687
COHM,3/1/14,3.755483871,1.525928212,0.09,10.21,2976
COHM,4/1/14,3.742166667,2.068765758,0.17,19.3,2880
COHM,5/1/14,3.776932124,2.72846358,0.13,18.52,2976
COHM,6/1/14,3.859388889,1.866023901,0.26,14.23,2880
COHM,7/1/14,3.849385081,1.569014311,0.27,13.9,2976
COHM,8/1/14,4.63030914,3.134751355,0.36,18.09,2976
COHM,9/1/14,4.257840278,2.687551892,0.22,16.01,2880
COHM,10/1/14,4.386859449,3.026273418,0.11,15.02,2974
COHM,11/1/14,3.374351304,1.533772811,0.17,10.21,2875
COHM,12/1/14,3.947950269,1.523572239,0.15,8.87,2976
COHM,1/1/15,3.54582521,1.651090584,0.06,9.43,2975
COHM,2/1/15,3.754365463,2.001346075,0.11,11.61,2687
COHM,3/1/15,4.362409274,1.77606842,0.22,8.78,2976
COHM,4/1/15,3.741522688,1.942334516,0.06,9.16,2292
COHM,5/1/15,4.152987231,1.996574692,0.12,15,2976
COHM,6/1/15,4.841538729,2.6942597,0.09,19.9,2879
COHM,7/1/15,4.019469086,2.589929908,0.08,18.55,2976
COHM,8/1/15,4.703111559,3.430635827,0.13,24.86,2976
COHM,9/1/15,4.746919343,3.126843237,0.22,18.01,2678
COHM,10/1/15,4.099348118,2.38988103,0.08,14.45,2976
COHM,11/1/15,3.746393853,2.015627266,0.25,13.07,2798
COHM,12/1/15,3.770181574,1.86858245,0.15,16.03,2974
COHM,1/1/16,3.508978495,1.760306514,0,10.25,2976
COHM,2/1/16,3.709022989,1.818874882,0.26,12.45,2784
COHM,3/1/16,3.913014113,1.867344518,0.14,12.69,2976
COHM,4/1/16,3.51681742,1.865246615,0.25,10.11,1194
COHM,5/1/16,6.444036394,5.280572941,0.05,28.93,1209
COHM,6/1/16,3.4963125,1.726082329,0.04,9.59,2880
COHM,7/1/16,3.762110215,1.963214133,0.19,13.75,2976
COHM,8/1/16,4.429099462,2.203116157,0.18,15.41,2976
COHM,9/1/16,3.743965278,1.856405873,0.34,11.35,2880
COHM,10/1/16,3.00553747,1.963611599,0.05,12.05,2949
COHM,11/1/16,2.786986111,1.773037599,0,11.01,2880
COHM,12/1/16,2.857358871,1.629859306,0.23,10.05,2976
COHM,1/1/17,3.470517473,1.922173962,0.05,10.79,2976
COHM,2/1/17,3.434296875,1.692247837,0.11,11.36,2688
COHM,3/1/17,3.398733199,2.034893124,0.07,12.32,2976
COHM,4/1/17,5.129770833,2.444877246,0.21,17.98,2880
COHM,5/1/17,4.63422379,3.391804012,0.14,23.15,2976
COHM,6/1/17,4.168666667,2.250774918,0.13,16.62,2880
COHM,7/1/17,4.769744624,2.783383287,0.06,18.09,2976
COHM,8/1/17,5.314448925,3.483275677,0.24,21.09,2976
COHM,9/1/17,4.188006944,2.292860929,0.15,14.52,2880
COHM,10/1/17,4.075198253,2.958638756,0.12,16.07,2976
COHM,11/1/17,3.185203478,2.056656196,0.04,12.95,2875
COHM,12/1/17,3.653766801,1.766121466,0.15,10.35,2976
COHM,1/1/18,3.390588038,1.553754279,0.19,8.28,2976
COHM,2/1/18,3.960200893,2.051724437,0.17,12.98,2688
COHM,3/1/18,4.063571909,2.249567139,0.15,13.73,2976
COHM,4/1/18,5.499038194,2.774751157,0.58,18.67,2880
COHM,5/1/18,4.338894489,1.895583231,0.4,12.71,2976
COHM,6/1/18,4.286704861,2.566509505,0.15,17.65,2880
COHM,7/1/18,5.381236559,3.539877188,0.35,22.54,2976
COHM,8/1/18,4.300692204,2.435820817,0.3,18.75,2976
COHM,9/1/18,4.483440972,3.606627116,0.09,17.88,2880
COHM,10/1/18,4.125356183,2.978018191,0.08,16.83,2976
COHM,11/1/18,3.54096063,1.822163261,0.3,12.58,2540